Weather past 2 weeks in Adamstown, Pitcairn Islands

Now
73 °F

Mild.


Feels Like: 75 °F
Forecast: 76 / 78 °F
Wind: 8 mph from East

Location: Rikitea


UV Index: 5 (Moderate)

Visibility: N/A


Pressure: 30.06 "Hg

Humidity: 70%

Dew point: 63 °F

Location of AdamstownLocation

Historic Weather in Adamstown

°F

Adamstown temperature yesterday

Maximum temperature yesterday: 76 °F (at 10:00 AM)
Minimum temperature yesterday: 72 °F (at 5:00 AM)
Average temperature yesterday: 74 °F

Past Weeks' High & Low Weather Summary

 TemperatureHumidityPressure
High79 °F (Apr 9, 3:00 PM)94% (Apr 12, 2:00 AM)30.10 "Hg (Apr 12, 2:00 AM)
Low66 °F (Apr 13, 6:00 AM)55% (Apr 19, 3:00 PM)29.87 "Hg (Apr 7, 4:00 PM)
Average74 °F76%29.99 "Hg
* Reported Apr 4 10:00 PM — Apr 19 10:00 PM, Adamstown, Weather by CustomWeather, © 2014

Note: Actual official high and low records may vary slightly from our data, if they occured in-between our weather recording intervals... More about our weather records

Advertising

Historic Weather Conditions — Data for Previous 24 hours

 ConditionsComfort  
Time TempWeatherWind HumidityBarometerVisibility
10:00 PM
Apr 19
73 °FMild.8 mph70%30.06 "HgN/A
9:00 PM73 °FMild.7 mph68%30.05 "HgN/A
8:00 PM73 °FMild.7 mph67%30.03 "HgN/A
7:00 PM73 °FMild.12 mph69%30.02 "HgN/A
6:00 PM74 °FPassing clouds.12 mph67%30.01 "Hg19 mi
5:00 PM74 °FPassing clouds.13 mph64%30.00 "Hg22 mi
4:00 PM77 °FPassing clouds.12 mph60%30.00 "Hg22 mi
3:00 PM77 °FPassing clouds.9 mph55%30.01 "Hg22 mi
2:00 PM78 °FPassing clouds.8 mph58%30.03 "Hg22 mi
1:00 PM78 °FPassing clouds.5 mph57%30.04 "Hg22 mi
12:00 PM77 °FPassing clouds.8 mph59%30.06 "Hg19 mi
11:00 AM77 °FPassing clouds.12 mph63%30.07 "Hg19 mi
10:00 AM75 °FScattered clouds.15 mph69%30.07 "Hg19 mi
9:00 AM76 °FPassing clouds.12 mph66%30.06 "Hg16 mi
8:00 AM74 °FPassing clouds.12 mph70%30.04 "Hg16 mi
7:00 AM73 °FPartly sunny.13 mph68%30.03 "Hg12 mi
6:00 AM74 °FMild.13 mph73%30.02 "HgN/A
5:00 AM73 °FMild.12 mph74%30.01 "HgN/A
4:00 AM73 °FMild.12 mph75%30.02 "HgN/A
3:00 AM73 °FMild.12 mph71%30.03 "HgN/A
2:00 AM73 °FMild.13 mph71%30.05 "HgN/A
1:00 AM74 °FMild.14 mph71%30.06 "HgN/A
12:00 AM74 °FMild.12 mph75%30.08 "HgN/A
11:00 PM
Apr 18
74 °FMild.12 mph71%30.08 "HgN/A
Weather by CustomWeather, © 2014

See weather overview